Time,TemperatureF,DewpointF,PressureIn,WindDirection,WindDirectionDegrees,WindSpeedMPH,WindSpeedGustMPH,Humidity,HourlyPrecipIn,Conditions,Clouds,dailyrainin,SolarRadiationWatts/m^2,SoftwareType,DateUTC
2013-01-24 00:02:00,63.0,51.0,-100.00,South,189,7.0,10.0,64,0.00,,,0.00,0.000000,,2013-01-24 06:02:00,
2013-01-24 00:33:00,62.0,50.0,-100.00,SSW,205,9.0,12.0,64,0.00,,,0.00,0.000000,,2013-01-24 06:33:00,
2013-01-24 00:42:00,62.0,50.0,-100.00,SSW,205,9.0,12.0,64,0.00,,,0.00,0.000000,,2013-01-24 06:42:00,
2013-01-24 00:52:00,62.0,50.0,-100.00,SSW,205,9.0,12.0,64,0.00,,,0.00,0.000000,,2013-01-24 06:52:00,
2013-01-24 01:02:00,62.0,50.0,-100.00,SSW,205,9.0,12.0,64,0.00,,,0.00,0.000000,,2013-01-24 07:02:00,
2013-01-24 01:33:00,61.0,48.0,-100.00,SSW,212,10.0,15.0,63,0.00,,,0.00,0.000000,,2013-01-24 07:33:00,
2013-01-24 01:43:00,61.0,48.0,-100.00,SSW,212,10.0,15.0,63,0.00,,,0.00,0.000000,,2013-01-24 07:43:00,
2013-01-24 01:53:00,61.0,48.0,-100.00,SSW,212,10.0,15.0,63,0.00,,,0.00,0.000000,,2013-01-24 07:53:00,
2013-01-24 02:02:00,61.0,48.0,-100.00,SSW,212,10.0,15.0,63,0.00,,,0.00,0.000000,,2013-01-24 08:02:00,
2013-01-24 02:33:00,60.0,48.0,-100.00,SW,216,10.0,16.0,65,0.00,,,0.00,0.000000,,2013-01-24 08:33:00,
2013-01-24 02:43:00,60.0,48.0,-100.00,SW,216,10.0,16.0,65,0.00,,,0.00,0.000000,,2013-01-24 08:43:00,
2013-01-24 02:53:00,60.0,48.0,-100.00,SW,216,10.0,16.0,65,0.00,,,0.00,0.000000,,2013-01-24 08:53:00,
2013-01-24 03:03:00,60.0,48.0,-100.00,SW,216,10.0,16.0,65,0.00,,,0.00,0.000000,,2013-01-24 09:03:00,
2013-01-24 03:34:00,60.0,50.0,-100.00,SW,225,10.0,15.0,69,0.00,,,0.00,0.000000,,2013-01-24 09:34:00,
2013-01-24 03:43:00,60.0,50.0,-100.00,SW,225,10.0,15.0,69,0.00,,,0.00,0.000000,,2013-01-24 09:43:00,
2013-01-24 03:53:00,60.0,50.0,-100.00,SW,225,10.0,15.0,69,0.00,,,0.00,0.000000,,2013-01-24 09:53:00,
2013-01-24 04:03:00,60.0,50.0,-100.00,SW,225,10.0,15.0,69,0.00,,,0.00,0.000000,,2013-01-24 10:03:00,
2013-01-24 04:34:00,58.0,49.0,-100.00,SW,227,6.0,12.0,73,0.00,,,0.00,0.000000,,2013-01-24 10:34:00,
2013-01-24 04:43:00,58.0,49.0,-100.00,SW,227,6.0,12.0,73,0.00,,,0.00,0.000000,,2013-01-24 10:43:00,
2013-01-24 04:53:00,58.0,49.0,-100.00,SW,227,6.0,12.0,73,0.00,,,0.00,0.000000,,2013-01-24 10:53:00,
2013-01-24 05:02:00,58.0,49.0,-100.00,SW,227,6.0,12.0,73,0.00,,,0.00,0.000000,,2013-01-24 11:02:00,
2013-01-24 05:33:00,59.0,52.0,-100.00,SW,225,7.0,10.0,77,0.00,,,0.00,0.000000,,2013-01-24 11:33:00,
2013-01-24 05:43:00,59.0,52.0,-100.00,SW,225,7.0,10.0,77,0.00,,,0.00,0.000000,,2013-01-24 11:43:00,
2013-01-24 05:53:00,59.0,52.0,-100.00,SW,225,7.0,10.0,77,0.00,,,0.00,0.000000,,2013-01-24 11:53:00,
2013-01-24 06:03:00,59.0,52.0,-100.00,SW,225,7.0,10.0,77,0.00,,,0.00,0.000000,,2013-01-24 12:03:00,
2013-01-24 06:33:00,58.0,51.0,-100.00,SW,223,5.0,11.0,78,0.00,,,0.00,0.000000,,2013-01-24 12:33:00,
2013-01-24 06:43:00,58.0,51.0,-100.00,SW,223,5.0,11.0,78,0.00,,,0.00,0.000000,,2013-01-24 12:43:00,
2013-01-24 06:53:00,58.0,51.0,-100.00,SW,223,5.0,11.0,78,0.00,,,0.00,0.000000,,2013-01-24 12:53:00,
2013-01-24 07:03:00,58.0,51.0,-100.00,SW,223,5.0,11.0,78,0.00,,,0.00,0.000000,,2013-01-24 13:03:00,
2013-01-24 07:33:00,56.0,52.0,-100.00,WSW,257,2.0,8.0,85,0.00,,,0.00,0.000000,,2013-01-24 13:33:00,
2013-01-24 07:43:00,56.0,52.0,-100.00,WSW,257,2.0,8.0,85,0.00,,,0.00,0.000000,,2013-01-24 13:43:00,
2013-01-24 07:53:00,56.0,52.0,-100.00,WSW,257,2.0,8.0,85,0.00,,,0.00,0.000000,,2013-01-24 13:53:00,
2013-01-24 08:02:00,56.0,52.0,-100.00,WSW,257,2.0,8.0,85,0.00,,,0.00,0.000000,,2013-01-24 14:02:00,
2013-01-24 08:33:00,56.0,52.0,-100.00,SW,224,3.0,6.0,88,0.00,,,0.00,15.000000,,2013-01-24 14:33:00,
2013-01-24 08:43:00,56.0,52.0,-100.00,SW,224,3.0,6.0,88,0.00,,,0.00,15.000000,,2013-01-24 14:43:00,
2013-01-24 08:54:00,56.0,52.0,-100.00,SW,224,3.0,6.0,88,0.00,,,0.00,15.000000,,2013-01-24 14:54:00,
2013-01-24 09:03:00,56.0,52.0,-100.00,SW,224,3.0,6.0,88,0.00,,,0.00,15.000000,,2013-01-24 15:03:00,
2013-01-24 09:33:00,61.0,56.0,-100.00,SW,227,6.0,8.0,83,0.00,,,0.00,176.000000,,2013-01-24 15:33:00,
2013-01-24 09:43:00,61.0,56.0,-100.00,SW,227,6.0,8.0,83,0.00,,,0.00,176.000000,,2013-01-24 15:43:00,
2013-01-24 09:53:00,61.0,56.0,-100.00,SW,227,6.0,8.0,83,0.00,,,0.00,176.000000,,2013-01-24 15:53:00,
2013-01-24 10:03:00,61.0,56.0,-100.00,SW,227,6.0,8.0,83,0.00,,,0.00,176.000000,,2013-01-24 16:03:00,
2013-01-24 10:33:00,67.0,56.0,-100.00,WSW,241,12.0,20.0,67,0.00,,,0.00,350.000000,,2013-01-24 16:33:00,
2013-01-24 10:43:00,67.0,56.0,-100.00,WSW,241,12.0,20.0,67,0.00,,,0.00,350.000000,,2013-01-24 16:43:00,
2013-01-24 11:02:00,67.0,56.0,-100.00,WSW,241,12.0,20.0,67,0.00,,,0.00,350.000000,,2013-01-24 17:02:00,
2013-01-24 11:33:00,72.0,56.0,-100.00,WSW,258,11.0,18.0,57,0.00,,,0.00,596.000000,,2013-01-24 17:33:00,
2013-01-24 11:43:00,72.0,56.0,-100.00,WSW,258,11.0,18.0,57,0.00,,,0.00,596.000000,,2013-01-24 17:43:00,
2013-01-24 11:52:00,72.0,56.0,-100.00,WSW,258,11.0,18.0,57,0.00,,,0.00,596.000000,,2013-01-24 17:52:00,
2013-01-24 12:02:00,72.0,56.0,-100.00,WSW,258,11.0,18.0,57,0.00,,,0.00,596.000000,,2013-01-24 18:02:00,
2013-01-24 12:33:00,74.0,52.0,-100.00,West,268,11.0,18.0,47,0.00,,,0.00,721.000000,,2013-01-24 18:33:00,
2013-01-24 12:43:00,74.0,52.0,-100.00,West,268,11.0,18.0,47,0.00,,,0.00,721.000000,,2013-01-24 18:43:00,
2013-01-24 12:53:00,74.0,52.0,-100.00,West,268,11.0,18.0,47,0.00,,,0.00,721.000000,,2013-01-24 18:53:00,
2013-01-24 13:02:00,74.0,52.0,-100.00,West,268,11.0,18.0,47,0.00,,,0.00,721.000000,,2013-01-24 19:02:00,
2013-01-24 13:33:00,70.0,47.0,-100.00,NNW,332,12.0,20.0,44,0.00,,,0.00,777.000000,,2013-01-24 19:33:00,
2013-01-24 13:42:00,70.0,47.0,-100.00,NNW,332,12.0,20.0,44,0.00,,,0.00,777.000000,,2013-01-24 19:42:00,
2013-01-24 13:53:00,70.0,47.0,-100.00,NNW,332,12.0,20.0,44,0.00,,,0.00,777.000000,,2013-01-24 19:53:00,
2013-01-24 14:02:00,70.0,47.0,-100.00,NNW,332,12.0,20.0,44,0.00,,,0.00,777.000000,,2013-01-24 20:02:00,
2013-01-24 14:33:00,65.0,43.0,-100.00,NW,316,12.0,17.0,45,0.00,,,-99.99,749.000000,,2013-01-24 20:33:00,
2013-01-24 14:42:00,65.0,43.0,-100.00,NW,316,12.0,17.0,45,0.00,,,-99.99,749.000000,,2013-01-24 20:42:00,
2013-01-24 14:52:00,65.0,43.0,-100.00,NW,316,12.0,17.0,45,0.00,,,-99.99,749.000000,,2013-01-24 20:52:00,
2013-01-24 15:02:00,65.0,43.0,-100.00,NW,316,12.0,17.0,45,0.00,,,-99.99,749.000000,,2013-01-24 21:02:00,
2013-01-24 15:33:00,65.0,43.0,-100.00,NNW,327,10.0,14.0,45,0.00,,,0.00,651.000000,,2013-01-24 21:33:00,
2013-01-24 15:43:00,65.0,43.0,-100.00,NNW,327,10.0,14.0,45,0.00,,,0.00,651.000000,,2013-01-24 21:43:00,
2013-01-24 15:53:00,65.0,43.0,-100.00,NNW,327,10.0,14.0,45,0.00,,,0.00,651.000000,,2013-01-24 21:53:00,
2013-01-24 16:03:00,65.0,43.0,-100.00,NNW,327,10.0,14.0,45,0.00,,,0.00,651.000000,,2013-01-24 22:03:00,
2013-01-24 16:33:00,63.0,42.0,-100.00,NNW,348,9.0,14.0,46,0.00,,,0.00,497.000000,,2013-01-24 22:33:00,
2013-01-24 16:42:00,63.0,42.0,-100.00,NNW,348,9.0,14.0,46,0.00,,,0.00,497.000000,,2013-01-24 22:42:00,
2013-01-24 16:53:00,63.0,42.0,-100.00,NNW,348,9.0,14.0,46,0.00,,,0.00,497.000000,,2013-01-24 22:53:00,
2013-01-24 17:02:00,63.0,42.0,-100.00,NNW,348,9.0,14.0,46,0.00,,,0.00,497.000000,,2013-01-24 23:02:00,
2013-01-24 17:32:00,59.0,39.0,-100.00,North,351,9.0,15.0,48,0.00,,,0.00,298.000000,,2013-01-24 23:32:00,
2013-01-24 17:42:00,59.0,39.0,-100.00,North,351,9.0,15.0,48,0.00,,,0.00,298.000000,,2013-01-24 23:42:00,
2013-01-24 17:52:00,59.0,39.0,-100.00,North,351,9.0,15.0,48,0.00,,,0.00,298.000000,,2013-01-24 23:52:00,
2013-01-24 18:02:00,59.0,39.0,-100.00,North,351,9.0,15.0,48,0.00,,,0.00,298.000000,,2013-01-25 00:02:00,
2013-01-24 18:32:00,54.0,38.0,-100.00,North,351,7.0,14.0,55,0.00,,,0.00,71.000000,,2013-01-25 00:32:00,
2013-01-24 18:42:00,54.0,38.0,-100.00,North,351,7.0,14.0,55,0.00,,,0.00,71.000000,,2013-01-25 00:42:00,
2013-01-24 18:53:00,54.0,38.0,-100.00,North,351,7.0,14.0,55,0.00,,,0.00,71.000000,,2013-01-25 00:53:00,
2013-01-24 19:02:00,54.0,38.0,-100.00,North,351,7.0,14.0,55,0.00,,,0.00,71.000000,,2013-01-25 01:02:00,
2013-01-24 19:32:00,50.0,38.0,-100.00,NNW,347,5.0,10.0,62,0.00,,,0.00,0.000000,,2013-01-25 01:32:00,
2013-01-24 19:42:00,50.0,38.0,-100.00,NNW,347,5.0,10.0,62,0.00,,,0.00,0.000000,,2013-01-25 01:42:00,
2013-01-24 19:52:00,50.0,38.0,-100.00,NNW,347,5.0,10.0,62,0.00,,,0.00,0.000000,,2013-01-25 01:52:00,
2013-01-24 20:02:00,50.0,38.0,-100.00,NNW,347,5.0,10.0,62,0.00,,,0.00,0.000000,,2013-01-25 02:02:00,
2013-01-24 20:33:00,48.0,36.0,-100.00,NNW,342,3.0,8.0,63,0.00,,,0.00,0.000000,,2013-01-25 02:33:00,
2013-01-24 20:43:00,48.0,36.0,-100.00,NNW,342,3.0,8.0,63,0.00,,,0.00,0.000000,,2013-01-25 02:43:00,
2013-01-24 20:53:00,48.0,36.0,-100.00,NNW,342,3.0,8.0,63,0.00,,,0.00,0.000000,,2013-01-25 02:53:00,
2013-01-24 21:02:00,48.0,36.0,-100.00,NNW,342,3.0,8.0,63,0.00,,,0.00,0.000000,,2013-01-25 03:02:00,
2013-01-24 21:33:00,46.0,36.0,-100.00,NW,308,3.0,6.0,68,0.00,,,0.00,0.000000,,2013-01-25 03:33:00,
2013-01-24 21:42:00,46.0,36.0,-100.00,NW,308,3.0,6.0,68,0.00,,,0.00,0.000000,,2013-01-25 03:42:00,
2013-01-24 21:52:00,46.0,36.0,-100.00,NW,308,3.0,6.0,68,0.00,,,0.00,0.000000,,2013-01-25 03:52:00,
2013-01-24 22:02:00,46.0,36.0,-100.00,NW,308,3.0,6.0,68,0.00,,,0.00,0.000000,,2013-01-25 04:02:00,
2013-01-24 22:32:00,45.0,36.0,-100.00,South,189,4.0,6.0,71,0.00,,,0.00,0.000000,,2013-01-25 04:32:00,
2013-01-24 22:42:00,45.0,36.0,-100.00,South,189,4.0,6.0,71,0.00,,,0.00,0.000000,,2013-01-25 04:42:00,
2013-01-24 22:52:00,45.0,36.0,-100.00,South,189,4.0,6.0,71,0.00,,,0.00,0.000000,,2013-01-25 04:52:00,
2013-01-24 23:03:00,45.0,36.0,-100.00,South,189,4.0,6.0,71,0.00,,,0.00,0.000000,,2013-01-25 05:03:00,
2013-01-24 23:32:00,45.0,38.0,-100.00,NNW,332,4.0,9.0,75,0.00,,,0.00,0.000000,,2013-01-25 05:32:00,
2013-01-24 23:43:00,45.0,38.0,-100.00,NNW,332,4.0,9.0,75,0.00,,,0.00,0.000000,,2013-01-25 05:43:00,
2013-01-24 23:52:00,45.0,38.0,-100.00,NNW,332,4.0,9.0,75,0.00,,,0.00,0.000000,,2013-01-25 05:52:00,